Meteo Giornale » Osservazioni meteo Italia » Capo Mele

ore: 14:55 - Osservazioni Meteo Capo Mele
Lat. 43° 57' N Lon. 8° 10' E Alt. 220 metri s.l.m.

nuvoloso Europe/Rome

12 °C

Nuvoloso

Temp. 24 Ore

8 °C

14 °C

Nord-Est

33.3 Km/h

Dew point 4 °C

Umidità 57 %

Visibilità  10 Km

Il sole sorge alle ore 06:42

Il sole tramonta alle ore 20:12

Data e Ora Cielo e Fenomeni T °C DP °C Um. % Pres. hPa Vis. km Vento km/h
Oggi h: 14:55 nuvoloso Nuvoloso 12 4 57 1020 10 NE 33.3
Oggi h: 12:55 nuvoloso Nuvoloso 14 7 62 1020 10 E/NE 38.8
Oggi h: 11:55 poco_nuvoloso Poco Nuvoloso 12 5 62 1020 10 NE 29.6
Oggi h: 10:55 poco_nuvoloso Poco Nuvoloso 11 4 61 1020 10 NE 31.5
Oggi h: 09:55 sereno Sereno 10 4 66 1019 10 NE 14.8
Oggi h: 08:55 sereno Sereno 8 2 65 1019 10 NE 14.8
Oggi h: 07:55 sereno Sereno 8 2 65 1019 10 N/NE 11.1
Oggi h: 06:55 sereno Sereno 8 2 65 1019 10 N/NE 13
Oggi h: 05:55 poco_nuvoloso Poco Nuvoloso 9 3 66 1020 10 NE 9.3
Oggi h: 04:55 poco_nuvoloso Poco Nuvoloso 9 2 61 1020 10 N/NE 11.1
Oggi h: 03:55 poco_nuvoloso Poco Nuvoloso 9 2 61 1020 10 N 3.7
Oggi h: 02:55 poco_nuvoloso Poco Nuvoloso 9 3 66 1020 10 N 5.5
Oggi h: 00:55 nuvoloso Nuvoloso 9 3 66 1021 10 N/NE 16.7
Ieri h: 22:55 nuvoloso Nuvoloso 9 2 61 1020 10 N 5.5
Ieri h: 21:55 nuvoloso Nuvoloso 9 3 66 1020 10 N 9.3
Ieri h: 20:55 nuvoloso Nuvoloso 10 4 66 1020 10 N 11.1
Ieri h: 19:55 poco_nuvoloso Poco Nuvoloso 10 5 71 1020 10 N 7.4
Ieri h: 18:55 nuvoloso Nuvoloso 10 5 71 1021 10 N 3.7
Ieri h: 17:55 nuvoloso Nuvoloso 11 4 61 1021 10 N 3.7
Ieri h: 16:55 nuvoloso Nuvoloso 10 4 66 1021 10 N 5.5
Ieri h: 15:55 nuvoloso Nuvoloso 10 5 71 1022 10 N 3.7